Regional Weather Roundup
Issued by NWS

Home | Current Version | Previous Version | Graphics & Text | Print | Product List | Glossary On
Versions: 1 2 3 4 5 6 7 8 9 10 11 12 13 14 15 16 17 18 19 20 21 22 23 24 25 26 27 28 29 30 31 32 33 34 35 36 37 38 39 40 41 42 43 44 45 46 47 48 49 50
000
ASUS43 KMPX 240010
RWRMN
WEATHER ROUNDUP FOR MINNESOTA
NATIONAL WEATHER SERVICE TWIN CITIES/CHANHASSEN MN
700 PM CDT SAT SEP 23 2017


NOTE: "FAIR" INDICATES FEW OR NO CLOUDS BELOW 12,000 FEET WITH NO
SIGNIFICANT WEATHER AND/OR OBSTRUCTIONS TO VISIBILITY. N/A MEANS
CURRENT SKY AND/OR WEATHER CONDITIONS ARE NOT AVAILABLE.

MNZ060>063-068>070-240100-
   Twin Cities Metro

CITY           SKY/WX    TMP DP  RH WIND       PRES   REMARKS
TWIN CITIES    CLOUDY    84  71  65 SE8       29.91S
6HR MIN TEMP:  84; 6HR MAX TEMP:  90;

ST PAUL        PTCLDY    79  73  82 E3        29.91S
CRYSTAL        MOCLDY    80  70  71 NE5       29.90S
BLAINE         MOCLDY    81  72  74 CALM      29.91F
LAKEVILLE      CLOUDY    75  72  88 CALM      29.92S
EDEN PRAIRIE   CLOUDY    84  70  62 E7        29.89F
6HR MIN TEMP:  82; 6HR MAX TEMP:  89;

SOUTH ST PAUL  CLOUDY    83  69  60 CALM      29.91S
LAKE ELMO      FAIR      79  72  78 CALM      29.93S
$$
MNZ001>005-007-008-013>017-022>024-027-028-240100-
   Northwest Minnesota

CITY           SKY/WX    TMP DP  RH WIND       PRES   REMARKS
BEMIDJI        CLOUDY    54  53  95 N6        30.04S
HALLOCK          N/A     59  48  67 N10       30.06F
ROSEAU           N/A     57  52  82 NW3       30.06S
WARROAD        CLOUDY    57  54  88 N3        30.06S
THIEF RVR FALL CLOUDY    57  52  83 N9        30.06R
CROOKSTON      CLOUDY    61  52  72 NE7       30.04F
FOSSTON        CLOUDY    54  52  94 N8        30.04F
DETROIT LAKES  CLOUDY    55  52  88 NE8G17    30.00F
MOORHEAD       CLOUDY    57  50  77 N9        30.02S
PARK RAPIDS    CLOUDY    57  54  89 N7        30.02F
MAHNOMEN       CLOUDY    55  51  88 NE10      30.02F
$$
MNZ006-009>011-018-025>026-240100-
   North Central Minnesota

CITY           SKY/WX    TMP DP  RH WIND       PRES   REMARKS
BAUDETTE       CLOUDY    56  53  90 W3        30.07R
FLAG ISLAND    CLOUDY    55  52  88 N9        30.05S
INTL FALLS     CLOUDY    56  53  90 NW6       30.04R
6HR MIN TEMP:  56; 6HR MAX TEMP:  59;

WASKISH        CLOUDY    55  54  94 N5        30.06R
BIG FORK       CLOUDY    59  55  88 CALM      30.04R
LONGVILLE      CLOUDY    57  55  94 N6        30.02S
GRAND RAPIDS   CLOUDY    60  57  89 N6        30.04R
CRANE LAKE     CLOUDY    57  55  94 N3        30.04S
ORR            CLOUDY    59  54  82 CALM      30.01R
COOK           CLOUDY    61  57  88 CALM      30.02S
WALKER         CLOUDY    55  54  96 N6        30.03F
$$
MNZ012-019>021-037-240100-
   Northeast Minnesota

CITY           SKY/WX    TMP DP  RH WIND       PRES   REMARKS
DULUTH         CLOUDY    70  70 100 N5        29.95F
6HR MIN TEMP:  70; 6HR MAX TEMP:  83; 6HR PCP:  0.16;

ELY            CLOUDY    64  63  94 CALM      30.01F
HIBBING        CLOUDY    62  58  86 N8        30.01R
EVELETH        CLOUDY    64  58  80 NE3       30.01S
DULUTH HARBOR  LGT RAIN  72  68  88 CALM      29.94F
GRAND MARAIS     N/A     68  65  90 SW3       29.94R
$$
MNZ029>031-032-039>041-046>048-054>057-064-240100-
   West Central Minnesota

CITY           SKY/WX    TMP DP  RH WIND       PRES   REMARKS
FERGUS FALLS   CLOUDY    55  55 100 N10G16    29.99R
WHEATON        CLOUDY    55  54  94 N3        30.01R
ALEXANDRIA     RAIN      58  57  97 NE14      29.98F FOG
ELBOW LAKE     CLOUDY    56  56  98 NE9G17    29.97F
WADENA         RAIN      57  57 100 N3        30.02R
GLENWOOD       RAIN      59  57  94 NE13      29.97F
APPLETON       LGT RAIN  57  55  94 N7        29.95F
BENSON         RAIN      59  57  94 CALM      29.97R
ORTONVILLE     LGT RAIN  55  54  94 N6        29.98R
MADISON        TSTM      57  57 100 N9        29.95F
WILLMAR        LGT RAIN  63  61  94 SE5       29.97F
$$
MNZ033>034-036-042>043-049>051-058-059-240100-
   Central Minnesota

CITY           SKY/WX    TMP DP  RH WIND       PRES   REMARKS
ST CLOUD       CLOUDY    68  66  93 W8        29.96R
6HR MIN TEMP:  68; 6HR MAX TEMP:  81;

SAUK CENTRE    LGT RAIN  60  60  98 N5        30.00R
PAYNESVILLE    TSTM      65  64  98 W10       29.99R
AITKIN         CLOUDY    63  59  88 N9        29.98R
PINE RIVER     DRIZZLE   55  54  94 N7        30.05R
BRAINERD       LGT RAIN  61  59  93 N12       29.99S
STAPLES        RAIN      57  57 100 N6        30.01S
LITTLE FALLS   LGT RAIN  63  59  88 NW3       29.98R
LITCHFIELD     CLOUDY    70  66  88 N7        29.94F
BUFFALO        LGT RAIN  72  67  84 N5        29.93F
MAPLE LAKE     LGT RAIN  72  69  89 N6        29.94S
HUTCHINSON     CLOUDY    71  68  89 N6        29.94S
$$
MNZ037-044-045-052-053-240100-
   East Central Minnesota

CITY           SKY/WX    TMP DP  RH WIND       PRES   REMARKS
PRINCETON      MOCLDY    73  70  88 N5        29.94R
MORA           CLOUDY    68  64  88 CALM      29.97R
RUSH CITY      CLOUDY    73  69  87 CALM      29.94S
MOOSE LAKE     MOCLDY    70  68  94 CALM      29.94S
HINCKLEY       FAIR      73  70  88 CALM      29.94F
CLOQUET        CLOUDY    72  64  78 CALM      29.96F
MCGREGOR       CLOUDY    64  61  88 N8        29.98S
$$
MNZ071>073-080-081-089-090-097-098-240100-
   Southwest Minnesota

CITY           SKY/WX    TMP DP  RH WIND       PRES   REMARKS
MONTEVIDEO     LGT RAIN  57  57 100 N6        29.94F
GRANITE FALLS  CLOUDY    63  61  94 E5        29.96R
CANBY          LGT RAIN  55  54  96 N7        29.97S
MARSHALL       TSTM      63  61  94 N8        29.94F FOG
REDWOOD FALLS  CLOUDY    65  61  87 N7        29.93F
OLIVIA         DRIZZLE   63  59  88 N8        29.94F
PIPESTONE      CLOUDY    66  63  88 E3        29.92S
WORTHINGTON    CLOUDY    66  64  93 N9        29.94R
JACKSON        MOCLDY    81  64  57 CALM      29.93R
TRACY          CLOUDY    62  61  94 NE6       29.95F
SLAYTON        CLOUDY    62  53  72 N8        29.95S
$$
MNZ065>067-074>077-082>085-091>093-240100-
   South Central Minnesota

CITY           SKY/WX    TMP DP  RH WIND       PRES   REMARKS
MANKATO        PTCLDY    82  67  60 S6        29.91S
NEW ULM        CLOUDY    73  66  78 N6        29.91S
ST JAMES       CLOUDY    73  68  83 NW3       29.92S
FAIRMONT       CLOUDY    81  65  58 S8        29.91S
FARIBAULT      PTCLDY    81  68  65 SE6       29.93S
OWATONNA       CLEAR     82  66  57 NE5       29.94S
WASECA         CLEAR     79  63  57 SE6       29.94S
ALBERT LEA     CLEAR     84  64  51 S6        29.94S
$$
MNZ078>079-086>088-094>096-240100-
   Southeast Minnesota

CITY           SKY/WX    TMP DP  RH WIND       PRES   REMARKS
ROCHESTER      CLOUDY    82  64  54 S9        29.97S
6HR MIN TEMP:  82; 6HR MAX TEMP:  89;

RED WING       CLOUDY    82  66  57 E3        29.92R
STANTON        PTCLDY    82  69  64 SE5       29.91S
DODGE CENTER   CLOUDY    81  63  54 S7        29.96S
WINONA         CLOUDY    81  64  57 CALM      29.95S
AUSTIN         CLEAR     82  61  47 S5        29.96R
PRESTON        PTCLDY    81  62  53 S6        29.98F
$$
ABBREVIATIONS USED IN REMARKS
   TC - TEMPERATURES IN CELSIUS
  WCI - WIND CHILL INDEX
   HX - HEAT INDEX
  VSB - VISIBILITY
$$




USA.gov is the U.S. government's official web portal to all federal, state and local government web resources and services.